Regional Weather Roundup
Issued by NWS

Home | Current Version | Previous Version | Text Only | Print | Product List | Glossary On
Versions: 1 2 3 4 5 6 7 8 9 10 11 12 13 14 15 16 17 18 19 20 21 22 23 24 25 26 27 28 29 30 31 32 33 34 35 36 37 38 39 40 41 42 43 44 45 46 47 48 49 50
000
ASUS43 KMPX 271110
RWRMN
WEATHER ROUNDUP FOR MINNESOTA
NATIONAL WEATHER SERVICE TWIN CITIES/CHANHASSEN MN
600 AM CDT WED AUG 27 2014


NOTE: "FAIR" INDICATES FEW OR NO CLOUDS BELOW 12,000 FEET WITH NO
SIGNIFICANT WEATHER AND/OR OBSTRUCTIONS TO VISIBILITY. N/A MEANS
CURRENT SKY AND/OR WEATHER CONDITIONS ARE NOT AVAILABLE.

MNZ060>063-068>070-271200-
   Twin Cities Metro

CITY           SKY/WX    TMP DP  RH WIND       PRES   REMARKS
TWIN CITIES    MOCLDY    61  56  83 NE5       30.19R
ST PAUL        PTCLDY    60  55  83 NE3       30.20R
CRYSTAL        MOCLDY    60  54  80 N3        30.18S
BLAINE         MOCLDY    59  57  94 N3        30.20R
LAKEVILLE      CLOUDY    57  55  94 NE5       30.19R
EDEN PRAIRIE   PTCLDY    61  55  81 CALM      30.18R
SOUTH ST PAUL  PTCLDY    61  55  80 NE3       30.19S
LAKE ELMO      CLOUDY    59  55  88 NE3       30.21R
$$
MNZ001>005-007-008-013>017-022>024-027-028-271200-
   Northwest Minnesota

CITY           SKY/WX    TMP DP  RH WIND       PRES   REMARKS
BEMIDJI        FOG       43  43 100 CALM      30.19S VSB 1/4
HALLOCK        CLEAR     45  43  93 S5        30.15S
ROSEAU         CLEAR     43  37  81 CALM      30.16S
WARROAD        CLEAR     46  43  87 CALM      30.17S
THIEF RVR FALL CLOUDY    50  48  93 S5        30.17S VSB 1/4
CROOKSTON      FOG       46  46 100 S5        30.18S VSB 1/4
FOSSTON        CLEAR     43  39  87 S5        30.19S FOG
DETROIT LAKES  CLEAR     54  54 100 CALM      30.21R
MOORHEAD       MOCLDY    55  55 100 CALM      30.19S
PARK RAPIDS    CLOUDY    53  52  96 S3        30.20S
MAHNOMEN       FOG       49  49 100 S5        30.19S VSB 1/4
$$
MNZ006-009>011-018-025>026-271200-
   North Central Minnesota

CITY           SKY/WX    TMP DP  RH WIND       PRES   REMARKS
BAUDETTE       CLOUDY    47  45  93 CALM      30.18S
FLAG ISLAND    PTCLDY    55  50  82 CALM      30.15R
INTL FALLS     MOCLDY    40  39  97 CALM      30.18F
WASKISH        CLEAR     46  45  93 CALM      30.18S
BIG FORK       CLOUDY    43  39  87 CALM      30.20S FOG
LONGVILLE      CLOUDY    46  46 100 CALM      30.20R FOG
GRAND RAPIDS   MOCLDY    45  41  87 CALM      30.20S VSB 3/4
CRANE LAKE     CLEAR     36  36 100 CALM      30.22R
ORR            CLEAR     41  39  93 CALM      30.18S
COOK           FOG       37  37 100 CALM      30.20F VSB 1/2
WALKER         FAIR      49  49 100 CALM      30.20R
$$
MNZ012-019>021-037-271200-
   Northeast Minnesota

CITY           SKY/WX    TMP DP  RH WIND       PRES   REMARKS
DULUTH         PTCLDY    51  47  86 NW5       30.20S
ELY            MOCLDY    43  43 100 CALM      30.20S FOG
HIBBING        PTCLDY    42  40  92 CALM      30.20S
EVELETH        PTCLDY    46  45  93 CALM      30.21S
DULUTH HARBOR  CLEAR     57  54  88 W5        30.21R
TWO HARBORS    CLEAR     46  43  87 CALM      30.18S
SILVER BAY     CLEAR     45  45 100 CALM      30.18R
GRAND MARAIS     N/A     55  48  77 NW10G17   30.16R
G MARAIS ARPRT CLEAR     46  43  87 NW3       30.19S
$$
MNZ029>031-032-039>041-046>048-054>057-064-271200-
   West Central Minnesota

CITY           SKY/WX    TMP DP  RH WIND       PRES   REMARKS
FERGUS FALLS   CLOUDY    59  57  94 CALM      30.19S
WHEATON          N/A     52  50  93 E3        30.20S FOG
MORRIS         CLOUDY    59  57  94 E3        30.18S
ALEXANDRIA     CLOUDY    58  56  93 E6        30.21S
ELBOW LAKE     FAIR      58  57  96 E5        30.18F
WADENA         CLOUDY    55  55 100 CALM      30.20S
GLENWOOD       PTCLDY    57  55  94 E3        30.20S
APPLETON       CLEAR     55  54  94 CALM      30.18S
BENSON         CLOUDY    57  57 100 E3        30.19S
ORTONVILLE     MOCLDY    57  54  88 CALM      30.18S
MADISON        FOG       55  54  94 CALM      30.18S VSB 1
WILLMAR        FAIR      57  55  94 E5        30.19F
$$
MNZ033>034-036-042>043-049>051-058-059-271200-
   Central Minnesota

CITY           SKY/WX    TMP DP  RH WIND       PRES   REMARKS
ST CLOUD       CLOUDY    58  55  90 CALM      30.20S
SAUK CENTRE    CLOUDY    56  55  96 E3        30.20F
PAYNESVILLE    CLOUDY    56  55  95 NE5       30.20S
AITKIN         MOCLDY    55  48  76 CALM      30.20R
PINE RIVER     FOG       52  52 100 CALM      30.24R VSB 1/4
BRAINERD       CLOUDY    56  54  93 CALM      30.21R
STAPLES        CLOUDY    55  55 100 CALM      30.20F
LONG PRAIRIE   CLOUDY    55  54  94 CALM      30.21R
LITTLE FALLS   CLOUDY    55  54  94 CALM      30.21R
LITCHFIELD     PTCLDY    61  61 100 NE3       30.20S
BUFFALO        PTCLDY    57  53  86 NE5       30.21S
MAPLE LAKE     MOCLDY    58  56  95 NE5       30.21S
$$
MNZ037-044-045-052-053-271200-
   East Central Minnesota

CITY           SKY/WX    TMP DP  RH WIND       PRES   REMARKS
PRINCETON      CLOUDY    57  55  94 CALM      30.21R
MORA           CLOUDY    54  52  94 CALM      30.22S
CAMBRIDGE      PTCLDY    57  50  77 CALM      30.19S
RUSH CITY      MOCLDY    55  53  95 CALM      30.21R
MOOSE LAKE     FOG       50  50 100 CALM      30.19R VSB 1/2
HINCKLEY       CLOUDY    54  54 100 CALM      30.20S
CLOQUET        CLEAR     48  46  93 N3        30.20S FOG
MCGREGOR         N/A     50  48  93 CALM      30.21S VSB 1/2
$$
MNZ071>073-080-081-089-090-097-098-271200-
   Southwest Minnesota

CITY           SKY/WX    TMP DP  RH WIND       PRES   REMARKS
MONTEVIDEO     CLEAR     55  54  94 CALM      30.19S
GRANITE FALLS  CLEAR     57  56  97 NE3       30.19S
CANBY          PTCLDY    54  53  97 W3        30.19F
MARSHALL       CLEAR     55  52  88 CALM      30.17S
REDWOOD FALLS  MOCLDY    59  56  89 E3        30.17F
OLIVIA         MOCLDY    57  54  88 E3        30.18S
PIPESTONE      CLEAR     57  55  94 CALM      30.18R
WINDOM         PTCLDY    57  55  94 NE3       30.18R
WORTHINGTON    CLEAR     55  54  94 E3        30.18S
JACKSON        CLEAR     54  52  94 E5        30.18S
TRACY          CLEAR     57  56  96 CALM      30.18S FOG
SLAYTON        CLEAR     56  55  98 CALM      30.19S
$$
MNZ065>067-074>077-082>085-091>093-271200-
   South Central Minnesota

CITY           SKY/WX    TMP DP  RH WIND       PRES   REMARKS
MANKATO        CLOUDY    63  54  72 E8        30.17S
NEW ULM        PTCLDY    61  57  88 NE3       30.18R
ST JAMES       PTCLDY    59  57  94 CALM      30.18S
FAIRMONT       CLEAR     55  52  88 CALM      30.17S
GLENCOE        CLEAR     59  55  85 N3        30.18S
FARIBAULT      CLOUDY    63  55  77 CALM      30.18S
OWATONNA       MOCLDY    61  57  88 NE5       30.18S
WASECA         CLOUDY    61  54  77 NE6       30.19S
ALBERT LEA     CLEAR     57  57 100 CALM      30.17F
$$
MNZ078>079-086>088-094>096-271200-
   Southeast Minnesota

CITY           SKY/WX    TMP DP  RH WIND       PRES   REMARKS
ROCHESTER      CLOUDY    62  56  80 NE6       30.19S
RED WING       MOCLDY    59  57  94 N5        30.17S
STANTON        MOCLDY    59  56  89 CALM      30.16F
DODGE CENTER   CLOUDY    61  57  88 NE3       30.18S
WINONA         CLOUDY    61  61 100 CALM      30.18R
AUSTIN         PTCLDY    57  55  94 CALM      30.17S
PRESTON        PTCLDY    58  58 100 CALM      30.19R
$$
ABBREVIATIONS USED IN REMARKS
   TC - TEMPERATURES IN CELSIUS
  WCI - WIND CHILL INDEX
   HX - HEAT INDEX
  VSB - VISIBILITY
$$



USA.gov is the U.S. government's official web portal to all federal, state and local government web resources and services.